Stations météo

réclame
Mon MeteoGroup
Treviso/S. Angelo, Italie (16099): Température de l'air & dewpoint: 18.05.2019 03:00:00 - 24.05.2019 03:00:00 (CEST)Treviso/S. Angelo, Italie (16099): Vitesse du vent: 18.05.2019 03:00:00 - 24.05.2019 03:00:00 (CEST)Treviso/S. Angelo, Italie (16099): Direction du vent: 18.05.2019 03:00:00 - 24.05.2019 03:00:00 (CEST)Treviso/S. Angelo, Italie (16099): reduced air pressure: 18.05.2019 03:00:00 - 24.05.2019 03:00:00 (CEST)Treviso/S. Angelo, Italie (16099): visibility: 18.05.2019 03:00:00 - 24.05.2019 03:00:00 (CEST)Treviso/S. Angelo, Italie (16099): Quantités de précipitations: 18.05.2019 03:00:00 - 24.05.2019 03:00:00 (CEST)
Date & Time tt [°C] td [°C] ff [km/h] ff [knt] dd ppp [hPa] vv [km] rr [mm]
24.05.2019 03:00:00 - - - - - - - -
24.05.2019 02:00:00 17,4 17,0 2 1 N 1014,7 - -
24.05.2019 01:00:00 - - - - - - - -
24.05.2019 00:00:00 - - - - - - - -
23.05.2019 23:00:00 18,3 15,9 0 0 N 1014,5 - 0,0
23.05.2019 22:00:00 - - - - - - - -
23.05.2019 21:00:00 - - - - - - - -
23.05.2019 20:00:00 21,5 16,2 9 5 SE 1013,4 - -
23.05.2019 19:00:00 - - - - - - - -
23.05.2019 18:00:00 - - - - - - - -
23.05.2019 17:00:00 23,5 16,0 8 4 S 1013,7 - 0,0
23.05.2019 16:00:00 - - - - - - - -
23.05.2019 15:00:00 - - - - - - - -
23.05.2019 14:00:00 22,8 13,4 5 3 N 1015,2 25 -
23.05.2019 13:00:00 - - - - - - - -
23.05.2019 12:00:00 - - - - - - - -
23.05.2019 11:00:00 19,9 15,0 4 2 N 1016,4 15 0,0
23.05.2019 10:00:00 - - - - - - - -
23.05.2019 09:00:00 - - - - - - - -
23.05.2019 08:00:00 16,2 15,2 8 4 ENE 1016,3 5 -
23.05.2019 07:00:00 - - - - - - - -
23.05.2019 06:00:00 - - - - - - - -
23.05.2019 05:00:00 15,5 15,2 4 2 N 1015,9 - 0,0
23.05.2019 04:00:00 - - - - - - - -
23.05.2019 03:00:00 - - - - - - - -
23.05.2019 02:00:00 16,7 15,4 2 1 N 1016,1 - -
23.05.2019 01:00:00 - - - - - - - -
23.05.2019 00:00:00 - - - - - - - -
22.05.2019 23:00:00 16,6 15,4 4 2 NNE 1015,9 25 0,0
22.05.2019 22:00:00 - - - - - - - -
22.05.2019 21:00:00 - - - - - - - -
22.05.2019 20:00:00 18,6 14,5 8 4 ESE 1014,2 20 -
22.05.2019 19:00:00 - - - - - - - -
22.05.2019 18:00:00 - - - - - - - -
22.05.2019 17:00:00 21,0 14,1 8 4 SE 1013,6 20 0,0
22.05.2019 16:00:00 - - - - - - - -
22.05.2019 15:00:00 - - - - - - - -
22.05.2019 14:00:00 21,3 11,5 5 3 SSW 1014,3 - -
22.05.2019 13:00:00 - - - - - - - -
22.05.2019 12:00:00 - - - - - - - -
22.05.2019 11:00:00 19,3 14,3 2 1 N 1014,4 - 0,0
22.05.2019 10:00:00 - - - - - - - -
22.05.2019 09:00:00 - - - - - - - -
22.05.2019 08:00:00 15,3 13,2 2 1 N 1013,9 - -
22.05.2019 07:00:00 - - - - - - - -
22.05.2019 06:00:00 - - - - - - - -
22.05.2019 05:00:00 14,5 13,2 4 2 NNE 1012,7 - 0,0
22.05.2019 04:00:00 - - - - - - - -
22.05.2019 03:00:00 - - - - - - - -
22.05.2019 02:00:00 14,7 13,6 4 2 N 1012,7 - -
22.05.2019 01:00:00 - - - - - - - -
22.05.2019 00:00:00 - - - - - - - -
21.05.2019 23:00:00 15,4 13,9 5 3 NE 1012,8 25 0,0
21.05.2019 22:00:00 - - - - - - - -
21.05.2019 21:00:00 - - - - - - - -
21.05.2019 20:00:00 16,6 14,7 8 4 NE 1011,2 25 -
21.05.2019 19:00:00 - - - - - - - -
21.05.2019 18:00:00 - - - - - - - -
21.05.2019 17:00:00 18,9 13,4 2 1 - 1010,6 12 0,0
21.05.2019 16:00:00 - - - - - - - -
21.05.2019 15:00:00 - - - - - - - -
21.05.2019 14:00:00 17,8 13,1 9 5 E 1009,9 - -
21.05.2019 13:00:00 - - - - - - - -
21.05.2019 12:00:00 - - - - - - - -
21.05.2019 11:00:00 15,5 13,0 4 2 N 1008,6 - 0,0
21.05.2019 10:00:00 - - - - - - - -
21.05.2019 09:00:00 - - - - - - - -
21.05.2019 08:00:00 13,9 12,6 2 1 N 1007,4 - -
21.05.2019 07:00:00 - - - - - - - -
21.05.2019 06:00:00 - - - - - - - -
21.05.2019 05:00:00 13,5 13,1 2 1 N 1006,7 - 0,0
21.05.2019 04:00:00 - - - - - - - -
21.05.2019 03:00:00 - - - - - - - -
21.05.2019 02:00:00 13,9 13,4 8 4 SSW 1006,9 - -
21.05.2019 01:00:00 - - - - - - - -
21.05.2019 00:00:00 - - - - - - - -
20.05.2019 23:00:00 14,9 12,8 5 3 S 1006,8 - 0,0
20.05.2019 22:00:00 - - - - - - - -
20.05.2019 21:00:00 - - - - - - - -
20.05.2019 20:00:00 16,0 12,7 11 6 S 1006,1 25 -
20.05.2019 19:00:00 - - - - - - - -
20.05.2019 18:00:00 - - - - - - - -
20.05.2019 17:00:00 17,6 12,9 15 8 SSW 1005,5 - 0,0
20.05.2019 16:00:00 - - - - - - - -
20.05.2019 15:00:00 - - - - - - - -
20.05.2019 14:00:00 17,8 13,2 22 12 SW 1005,2 15 -
20.05.2019 13:00:00 - - - - - - - -
20.05.2019 12:00:00 - - - - - - - -
20.05.2019 11:00:00 15,8 13,5 13 7 SW 1004,6 10 0,0
20.05.2019 10:00:00 - - - - - - - -
20.05.2019 09:00:00 - - - - - - - -
20.05.2019 08:00:00 14,2 13,6 2 1 WSW 1003,8 7 -
20.05.2019 07:00:00 - - - - - - - -
20.05.2019 06:00:00 - - - - - - - -
20.05.2019 05:00:00 13,5 13,5 2 1 WSW 1003,5 - 0,0
20.05.2019 04:00:00 - - - - - - - -
20.05.2019 03:00:00 - - - - - - - -
20.05.2019 02:00:00 13,8 13,5 0 0 N 1004,5 - -
20.05.2019 01:00:00 - - - - - - - -
20.05.2019 00:00:00 - - - - - - - -
19.05.2019 23:00:00 14,2 13,8 4 2 N 1005,0 10 0,0
19.05.2019 22:00:00 - - - - - - - -
19.05.2019 21:00:00 - - - - - - - -
19.05.2019 20:00:00 15,3 14,1 11 6 ENE 1004,6 10 -
19.05.2019 19:00:00 - - - - - - - -
19.05.2019 18:00:00 - - - - - - - -
19.05.2019 17:00:00 16,4 13,7 11 6 NNE 1004,7 10 0,0
19.05.2019 16:00:00 - - - - - - - -
19.05.2019 15:00:00 - - - - - - - -
19.05.2019 14:00:00 15,3 14,0 13 7 ENE 1005,1 11 -
19.05.2019 13:00:00 - - - - - - - -
19.05.2019 12:00:00 - - - - - - - -
19.05.2019 11:00:00 15,3 13,7 13 7 NE 1005,1 20 0,0
19.05.2019 10:00:00 - - - - - - - -
19.05.2019 09:00:00 - - - - - - - -
19.05.2019 08:00:00 13,6 13,1 13 7 NE 1005,1 - -
19.05.2019 07:00:00 - - - - - - - -
19.05.2019 06:00:00 - - - - - - - -
19.05.2019 05:00:00 13,4 13,0 9 5 NNE 1005,6 - 0,0
19.05.2019 04:00:00 - - - - - - - -
19.05.2019 03:00:00 - - - - - - - -
19.05.2019 02:00:00 13,5 12,9 13 7 NE 1006,5 - -
19.05.2019 01:00:00 - - - - - - - -
19.05.2019 00:00:00 - - - - - - - -
18.05.2019 23:00:00 13,1 12,8 9 5 NNE 1007,5 4,0 0,0
18.05.2019 22:00:00 - - - - - - - -
18.05.2019 21:00:00 - - - - - - - -
18.05.2019 20:00:00 13,2 12,9 15 8 NNE 1007,0 2,0 -
18.05.2019 19:00:00 - - - - - - - -
18.05.2019 18:00:00 - - - - - - - -
18.05.2019 17:00:00 14,7 12,8 9 5 N 1007,0 10 0,0
18.05.2019 16:00:00 - - - - - - - -
18.05.2019 15:00:00 - - - - - - - -
18.05.2019 14:00:00 14,9 12,3 4 2 N 1007,7 20 -
18.05.2019 13:00:00 - - - - - - - -
18.05.2019 12:00:00 - - - - - - - -
18.05.2019 11:00:00 14,4 11,7 11 6 NNE 1008,0 25 0,0
18.05.2019 10:00:00 - - - - - - - -
18.05.2019 09:00:00 - - - - - - - -
18.05.2019 08:00:00 13,5 11,5 5 3 E 1008,1 - -
18.05.2019 07:00:00 - - - - - - - -
18.05.2019 06:00:00 - - - - - - - -
18.05.2019 05:00:00 12,9 11,1 4 2 N 1008,2 - 0,0
18.05.2019 04:00:00 - - - - - - - -
18.05.2019 03:00:00 - - - - - - - -

tt = Température de l'air
td = dewpoint
ff = Vitesse du vent
dd = Direction du vent
ppp = reduced air pressure
vv = visibility
rr = Quantités de précipitations

stations d'obs. à proximité